Tracking 30260 objects as of 14-Feb-2025
HD Live streaming from Space Station
objects crossing your sky now

METEOR 2-20 DEB

Track METEOR 2-20 DEB now!
10-day predictions


NORAD ID: 59999
Int'l Code: 1990-086J
Perigee: 916.9 km
Apogee: 941.4 km
Inclination: 82.6 °
Period: 103.5 minutes
Semi major axis: 7300 km
RCS: Unknown
Launch date: September 28, 1990
Source: Commonwealth of Independent States (former USSR) (CIS)
Launch site: PLESETSK MISSILE AND SPACE COMPLEX (PKMTR)

Note: This is SATELLITE DEBRIS
Your satellite tracking list
Your tracking list is empty




NASA's NSSDC Master Catalog

Two Line Element Set (TLE):
1 59999U 90086J   25044.22599652  .00002584  00000-0  20156-2 0  9994
2 59999  82.5645 222.5941 0016780 239.3703 120.5808 13.91883840432656
Source of the keplerian elements: AFSPC